SCP
0 0 0 0 0 0 0 0 0 0 0 0 0 0 0 0 0 0 0 0 0 0 0 0 0 0 0 0 0 0 0 0 0 -0 0 -0 -0 0 0 -0 -0 0 0
0 0 0 0 0 0 0 0 0 0 0 0 0 0 0 0 0 0 0 0 0 0 0 0 0 0 0 0 0 0 0 0 0 -0 -0 -0 -0 -0 0 0 -0 0 0
0 0 0 0 0 0 0 0 0 0 0 0 0 0 0 0 0 0 0 0 0 0 0 0 0 0 0 0 0 0 0 0 0 0 -0 -0 0 0 0 0 0 0 0
0 0 0 0 0 0 0 0 0 0 0 0 0 0 0 0 0 0 0 0 0 0 0 0 0 0 0 0 0 0 0 0 0 0 -0 0 0 0 0 0 0 0 0
0 0 0 0 0 0 0 0 0 0 0 0 0 0 0 0 0 0 0 0 0 0 0 0 0 0 0 0 0 0 0 0 0 -0 0 0 0 0 0 0 0 0 0
0 0 0 0 0 0 0 0 0 0 0 0 0 0 0 0 0 0 0 0 0 0 0 0 0 0 0 0 0 0 0 0 -0 -0 0 0 0 0 0 0 0 0 0
0 0 0 0 0 0 0 0 0 0 0 0 0 0 0 0 0 0 0 0 0 0 0 0 0 0 0 0 0 0 0 0 0 -0 -0 0 0 0 0 0 0 0 0
0 0 0 0 0 0 0 0 0 0 0 0 0 0 0 0 0 0 0 0 0 0 0 0 0 0 0 0 0 0 0 0 0 0 -0 -0 0 0 0 0 0 0 0
0 0 0 0 0 0 0 0 0 0 0 0 0 0 0 0 0 0 0 0 0 0 0 0 0 0 0 0 0 0 0 0 0 0 0 0 -0 -0 -0 0 0 0 0
0 0 0 0 0 0 0 0 0 0 0 0 0 0 0 0 0 0 0 0 0 0 0 0 0 0 0 0 0 0 0 0 0 0 0 0 0 -0 -0 0 0 0 0
0 0 0 0 0 0 0 0 0 0 0 0 0 0 0 0 0 0 0 0 0 0 0 0 0 0 0 0 0 0 0 0 0 0 0 0 0 0 0 -0 0 0 0
0 0 0 0 0 0 0 0 0 0 0 0 0 0 0 0 0 0 0 0 0 0 0 0 0 0 0 0 0 -0 -0 0 0 0 -0 0 0 0 0 0 0 0 0
0 0 0 0 0 0 0 0 0 0 0 0 0 0 0 0 0 0 0 0 0 0 0 0 0 0 0 0 -0 -0 0 -0 0 0 0 0 0 0 0 0 0 0 0
0 0 0 0 0 0 0 0 0 0 0 0 0 0 0 0 0 0 0 0 0 0 0 0 0 0 0 0 0 0 -0 -0 -0 -0 0 0 0 0 0 0 0 0 0
0 0 0 0 0 0 0 0 0 0 0 0 0 0 0 0 0 0 0 0 0 0 0 0 0 0 0 0 0 0 0 -0 -0 -0 0 0 0 0 0 0 0 0 0
0 0 0 0 0 0 0 0 0 0 0 0 0 0 0 0 0 0 0 0 0 0 0 0 0 0 0 0 0 0 0 0 0 0 0 -0 0 0 0 0 0 0 0
0 0 0 0 0 0 -0 0 0 0 0 0 0 0 0 0 0 0 0 0 0 0 0 0 0 0 0 0 0 0 0 0 0 0 0 0 0 0 0 0 0 0 0
0 0 0 0 0 0 0 0 0 -0 0 0 0 0 0 0 0 0 0 0 0 0 0 0 0 0 0 0 0 0 0 0 0 0 0 0 0 0 0 0 0 0 0
0 0 0 0 0 0 0 0 0 0 0 0 0 0 0 0 0 0 0 0 0 0 0 0 0 0 0 0 0 0 0 0 0 0 0 0 0 0 0 0 0 0 0
0 0 0 0 0 0 0 0 0 0 0 0 0 0 0 0 0 0 0 0 0 0 0 0 0 0 0 0 0 0 0 0 0 0 0 0 0 0 0 0 0 0 0
0 0 0 0 0 0 0 0 0 0 0 0 0 0 0 0 0 0 0 0 0 0 0 0 0 0 0 -0 0 0 0 0 0 0 0 0 0 0 0 0 0 0 0
0 0 0 0 0 0 0 0 0 0 0 0 0 0 0 0 0 0 0 0 0 0 0 0 0 0 0 -0 -0 0 0 0 0 0 0 0 0 -0 -0 0 0 0 0
0 0 0 0 0 0 0 0 0 0 0 0 0 0 0 0 0 0 0 0 0 0 0 0 0 0 -0 -0 -0 -0 -0 0 0 0 0 0 0 -0 -0 0 0 0 0
0 0 0 0 0 0 0 0 0 0 0 0 0 0 0 0 0 0 0 0 0 0 0 0 0 0 -0 -0 -0 -0 -0 -0 0 0 0 0 0 -0 -0 0 0 0 0
0 0 0 0 0 0 0 0 0 0 0 0 0 0 0 0 0 0 0 0 0 0 0 0 0 -0 -0 0 -0 -0 -0 0 0 0 0 0 -0 -0 -0 -0 0 0 0
0 0 0 0 0 0 0 0 0 0 0 0 0 0 0 0 0 0 0 0 0 0 0 0 0 0 0 0 -0 0 0 0 0 0 0 0 0 -0 -0 -0 0 0 0
Wind_Speed_500mb
38 45 54 58 59 53 50 45 45 46 43 46 43 47 47 50 49 49 47 49 50 47 43 45 43 44 47 51 57 55 55 61 74 80 79 87 86 77 69 82 80 137 143
38 50 58 63 62 58 55 49 47 44 42 44 45 48 55 58 60 49 45 43 45 44 39 39 39 42 44 46 49 55 57 51 60 81 82 86 84 75 72 63 67 122 121
44 56 60 64 65 58 56 50 46 47 43 47 51 56 61 62 53 44 42 36 44 43 39 40 39 39 42 45 49 53 56 56 56 60 84 85 82 68 57 68 58 82 136
49 56 59 64 61 56 53 50 47 46 52 54 56 59 61 56 43 40 37 40 39 37 35 35 35 36 39 41 50 52 54 56 59 61 67 72 66 63 59 57 50 88 100
51 55 64 61 58 53 52 49 49 50 51 55 58 58 53 42 39 35 38 38 36 35 33 32 34 34 31 35 43 48 46 53 56 62 71 72 57 61 51 48 49 64 116
55 58 61 60 56 54 53 52 52 53 54 51 47 46 42 38 34 34 34 36 31 31 31 32 34 36 33 29 35 36 39 46 52 54 63 62 66 57 52 46 32 56 67
66 64 63 65 61 60 58 57 57 55 53 51 48 44 43 37 33 35 34 34 31 29 29 31 34 35 37 40 33 33 33 32 40 51 60 59 63 56 55 49 38 57 79
76 74 74 73 76 73 70 70 65 59 57 54 53 47 42 38 34 37 35 32 32 30 29 30 34 36 39 39 40 36 35 33 33 39 47 56 48 44 48 39 35 39 73
60 63 67 69 79 86 85 91 79 66 60 56 53 52 43 41 35 33 31 30 33 32 29 27 28 26 30 34 41 43 43 36 30 34 40 46 44 35 24 38 38 44 45
56 59 62 65 71 80 80 80 91 74 62 53 52 50 46 43 37 30 25 28 32 32 28 26 24 20 19 27 38 41 42 44 40 35 30 29 37 32 20 23 30 43 49
72 74 76 75 76 69 71 79 75 81 65 52 55 51 53 43 35 26 22 23 26 29 28 27 24 21 21 20 28 36 38 41 44 41 38 32 23 27 21 21 17 28 31
74 74 73 72 72 75 77 70 75 80 69 61 53 51 51 43 31 27 25 22 21 24 27 26 21 20 20 21 21 24 30 36 41 44 41 34 26 17 18 17 21 26 36
76 77 79 77 77 73 73 73 77 83 78 67 56 51 48 41 30 25 23 18 17 22 24 28 23 23 21 20 21 23 28 29 35 41 42 40 33 20 20 21 24 39 35
69 71 75 75 77 74 77 74 70 79 78 71 53 49 42 38 30 26 24 19 16 18 21 21 23 23 21 19 21 24 27 30 33 37 39 39 35 25 23 26 24 35 41
68 70 73 76 74 73 72 72 72 77 76 62 44 36 39 39 30 26 24 21 19 18 17 12 18 22 19 18 21 24 28 31 35 38 40 41 38 26 21 26 26 32 45
67 69 71 76 75 76 76 79 64 49 45 39 37 34 32 30 24 24 25 26 22 21 20 15 12 16 22 23 24 28 27 31 34 38 39 39 41 34 25 25 30 34 47
72 70 72 75 76 71 68 67 74 59 40 35 41 37 37 29 22 20 20 18 20 23 23 17 12 11 17 25 25 27 31 29 33 35 39 38 36 32 26 29 33 39 48
66 59 67 71 75 76 64 55 50 51 52 42 34 36 42 36 27 20 16 14 13 19 20 16 15 14 16 23 30 31 31 29 31 34 37 34 36 36 29 27 37 42 54
68 67 80 82 75 70 69 57 53 44 37 34 25 6 3 15 13 14 10 11 14 14 13 16 17 17 14 19 26 34 34 33 30 32 35 35 32 34 30 27 33 47 56
74 71 74 74 72 64 62 58 50 54 53 47 34 26 23 6 12 12 13 14 18 20 21 22 24 23 22 19 22 28 33 38 35 32 34 36 30 28 29 27 35 51 67
79 79 74 66 55 57 57 57 55 50 51 50 49 47 38 33 28 22 22 23 24 27 27 27 30 31 32 29 28 29 30 36 37 35 33 36 34 30 23 22 29 49 61
78 77 73 65 56 58 58 55 49 47 47 49 53 52 49 48 44 42 40 38 36 37 37 37 37 36 36 37 37 37 37 36 37 37 37 36 36 31 25 20 24 43 56
78 78 75 69 61 49 53 50 48 50 47 46 44 42 43 47 49 50 50 50 49 48 44 43 42 42 41 41 41 40 40 39 36 35 39 38 37 32 27 23 25 34 52
78 79 77 70 65 56 57 59 59 53 44 46 47 44 39 37 39 43 44 44 45 46 46 45 43 44 44 46 46 44 41 39 37 35 36 38 37 32 29 25 24 31 41
79 80 74 66 64 55 55 51 50 43 48 50 51 50 46 38 36 33 33 35 38 39 40 40 40 40 42 46 48 47 45 42 42 37 37 37 36 33 30 28 24 29 39
81 77 68 62 66 62 57 51 49 45 53 50 44 40 39 40 41 40 40 40 38 37 36 38 39 39 38 42 45 46 45 44 44 40 34 37 36 32 30 31 26 29 39
Wind_Direction_500mb
286 310 313 315 317 315 313 305 299 295 288 292 299 294 295 296 296 297 293 289 292 294 293 294 299 302 301 300 297 290 286 277 287 295 285 293 293 289 285 255 274 214 225
298 308 311 315 315 311 307 300 297 294 291 283 282 286 290 295 301 297 297 296 299 298 298 300 302 304 305 303 301 296 291 296 282 291 297 300 293 285 286 273 256 221 229
304 310 313 314 311 306 303 298 295 291 284 275 276 277 285 290 291 290 296 295 297 298 306 302 304 306 308 310 305 305 299 291 296 295 295 304 307 286 275 273 238 232 210
309 312 313 312 304 304 303 300 297 290 281 275 274 277 281 286 286 290 287 291 295 300 302 300 305 306 308 308 308 309 310 300 297 300 297 313 306 293 277 286 241 227 206
306 304 312 305 300 303 302 297 297 293 289 276 274 275 279 280 284 284 289 289 291 299 304 303 305 306 305 305 306 312 312 306 302 298 302 321 324 310 274 280 248 227 215
298 298 307 300 298 300 302 298 295 296 295 287 277 275 279 279 280 283 287 290 291 299 301 304 306 311 308 304 304 306 308 307 305 304 305 311 318 322 317 288 264 227 200
293 292 298 298 292 293 294 292 294 294 292 289 280 276 279 278 281 282 287 286 290 291 295 299 304 305 306 309 308 309 308 304 302 301 298 306 315 315 322 313 255 238 200
293 292 292 295 291 288 285 285 287 290 289 288 284 279 279 275 275 278 283 284 285 286 290 292 297 305 309 310 316 318 314 313 304 299 294 294 305 312 320 305 279 234 207
295 294 295 294 289 287 286 283 279 278 283 283 283 282 269 269 266 272 277 283 283 285 289 294 293 298 303 311 314 318 317 318 313 301 293 291 281 305 332 328 299 246 179
328 320 315 312 306 297 292 289 276 270 273 276 278 279 274 269 261 262 268 280 286 291 295 298 296 293 291 303 310 315 316 321 327 320 305 296 280 304 275 314 307 243 187
324 321 320 318 310 310 312 304 278 262 260 265 272 275 276 266 264 265 265 275 287 292 299 305 305 300 300 303 306 310 317 323 326 330 326 317 307 275 301 275 288 277 236
330 325 317 317 320 320 308 301 293 262 249 262 260 265 267 266 259 261 262 267 284 297 307 311 316 305 302 307 311 315 320 322 327 331 334 332 323 296 278 272 278 278 245
333 332 332 324 324 326 321 308 297 276 248 249 252 261 262 263 242 250 257 264 275 294 314 321 323 324 319 326 337 337 338 337 338 336 335 333 327 304 248 260 248 250 254
338 338 338 336 336 332 334 321 306 275 249 245 247 255 254 256 248 230 250 268 283 284 301 319 331 322 315 324 338 346 345 343 345 342 338 331 325 305 263 244 254 246 231
339 339 340 342 339 340 342 341 307 282 258 244 252 255 250 253 265 251 256 272 281 284 291 320 328 338 340 333 334 337 346 346 344 343 340 333 325 308 269 241 255 254 235
338 337 336 337 338 341 337 342 348 307 265 259 250 250 242 250 249 257 254 265 273 264 275 277 302 331 350 343 340 341 343 347 347 343 339 335 330 312 283 255 250 252 240
329 329 328 328 330 337 340 343 341 340 334 284 258 246 237 240 227 242 256 280 268 263 262 262 287 339 343 345 349 346 341 345 347 345 339 331 325 310 284 260 249 247 235
335 329 327 327 325 324 327 334 345 338 339 335 306 278 245 239 234 243 259 289 288 261 264 268 282 301 322 337 351 348 342 341 344 343 338 331 324 316 288 267 252 245 235
337 330 327 327 326 323 318 312 315 327 333 333 341 286 201 227 215 251 269 301 304 313 324 318 308 321 322 332 341 344 347 342 340 341 340 334 324 313 292 271 262 251 242
337 333 329 326 324 325 324 322 309 306 308 312 314 318 332 305 245 250 286 294 303 310 316 325 329 335 330 326 329 334 342 341 338 339 337 334 321 311 290 265 263 249 233
339 337 336 331 328 326 322 321 316 308 303 302 301 301 299 300 294 295 299 301 301 301 304 312 313 323 331 331 327 324 326 331 333 334 330 331 320 309 295 269 260 254 239
339 338 337 332 322 318 317 317 319 317 310 303 299 296 295 293 292 286 282 282 286 289 294 297 303 311 317 321 324 321 321 319 321 327 325 323 322 302 295 282 268 255 240
338 338 336 333 328 319 316 313 317 318 318 314 311 305 298 292 285 281 279 278 278 278 278 281 289 295 302 307 311 317 316 318 317 316 317 315 316 303 289 282 276 258 239
338 338 335 330 328 319 312 309 304 299 306 305 306 307 303 299 295 284 282 282 280 275 270 273 278 283 288 294 299 304 306 305 305 303 306 305 305 301 277 272 271 264 250
340 338 334 332 334 326 321 318 319 311 309 311 305 300 293 292 289 289 285 279 278 278 270 268 272 276 281 286 289 294 298 300 297 293 294 295 295 292 269 263 260 260 251
343 340 336 336 327 328 316 312 315 317 308 312 315 312 307 291 288 287 283 279 279 279 280 271 270 275 281 286 287 286 287 289 293 290 283 286 287 284 262 251 250 252 248
Wind_Speed_850mb
38 45 54 58 59 53 50 45 45 46 43 46 43 47 47 50 49 49 47 49 50 47 43 45 43 44 47 51 57 55 55 61 74 80 79 87 86 77 69 82 80 137 143
38 50 58 63 62 58 55 49 47 44 42 44 45 48 55 58 60 49 45 43 45 44 39 39 39 42 44 46 49 55 57 51 60 81 82 86 84 75 72 63 67 122 121
44 56 60 64 65 58 56 50 46 47 43 47 51 56 61 62 53 44 42 36 44 43 39 40 39 39 42 45 49 53 56 56 56 60 84 85 82 68 57 68 58 82 136
49 56 59 64 61 56 53 50 47 46 52 54 56 59 61 56 43 40 37 40 39 37 35 35 35 36 39 41 50 52 54 56 59 61 67 72 66 63 59 57 50 88 100
51 55 64 61 58 53 52 49 49 50 51 55 58 58 53 42 39 35 38 38 36 35 33 32 34 34 31 35 43 48 46 53 56 62 71 72 57 61 51 48 49 64 116
55 58 61 60 56 54 53 52 52 53 54 51 47 46 42 38 34 34 34 36 31 31 31 32 34 36 33 29 35 36 39 46 52 54 63 62 66 57 52 46 32 56 67
66 64 63 65 61 60 58 57 57 55 53 51 48 44 43 37 33 35 34 34 31 29 29 31 34 35 37 40 33 33 33 32 40 51 60 59 63 56 55 49 38 57 79
76 74 74 73 76 73 70 70 65 59 57 54 53 47 42 38 34 37 35 32 32 30 29 30 34 36 39 39 40 36 35 33 33 39 47 56 48 44 48 39 35 39 73
60 63 67 69 79 86 85 91 79 66 60 56 53 52 43 41 35 33 31 30 33 32 29 27 28 26 30 34 41 43 43 36 30 34 40 46 44 35 24 38 38 44 45
56 59 62 65 71 80 80 80 91 74 62 53 52 50 46 43 37 30 25 28 32 32 28 26 24 20 19 27 38 41 42 44 40 35 30 29 37 32 20 23 30 43 49
72 74 76 75 76 69 71 79 75 81 65 52 55 51 53 43 35 26 22 23 26 29 28 27 24 21 21 20 28 36 38 41 44 41 38 32 23 27 21 21 17 28 31
74 74 73 72 72 75 77 70 75 80 69 61 53 51 51 43 31 27 25 22 21 24 27 26 21 20 20 21 21 24 30 36 41 44 41 34 26 17 18 17 21 26 36
76 77 79 77 77 73 73 73 77 83 78 67 56 51 48 41 30 25 23 18 17 22 24 28 23 23 21 20 21 23 28 29 35 41 42 40 33 20 20 21 24 39 35
69 71 75 75 77 74 77 74 70 79 78 71 53 49 42 38 30 26 24 19 16 18 21 21 23 23 21 19 21 24 27 30 33 37 39 39 35 25 23 26 24 35 41
68 70 73 76 74 73 72 72 72 77 76 62 44 36 39 39 30 26 24 21 19 18 17 12 18 22 19 18 21 24 28 31 35 38 40 41 38 26 21 26 26 32 45
67 69 71 76 75 76 76 79 64 49 45 39 37 34 32 30 24 24 25 26 22 21 20 15 12 16 22 23 24 28 27 31 34 38 39 39 41 34 25 25 30 34 47
72 70 72 75 76 71 68 67 74 59 40 35 41 37 37 29 22 20 20 18 20 23 23 17 12 11 17 25 25 27 31 29 33 35 39 38 36 32 26 29 33 39 48
66 59 67 71 75 76 64 55 50 51 52 42 34 36 42 36 27 20 16 14 13 19 20 16 15 14 16 23 30 31 31 29 31 34 37 34 36 36 29 27 37 42 54
68 67 80 82 75 70 69 57 53 44 37 34 25 6 3 15 13 14 10 11 14 14 13 16 17 17 14 19 26 34 34 33 30 32 35 35 32 34 30 27 33 47 56
74 71 74 74 72 64 62 58 50 54 53 47 34 26 23 6 12 12 13 14 18 20 21 22 24 23 22 19 22 28 33 38 35 32 34 36 30 28 29 27 35 51 67
79 79 74 66 55 57 57 57 55 50 51 50 49 47 38 33 28 22 22 23 24 27 27 27 30 31 32 29 28 29 30 36 37 35 33 36 34 30 23 22 29 49 61
78 77 73 65 56 58 58 55 49 47 47 49 53 52 49 48 44 42 40 38 36 37 37 37 37 36 36 37 37 37 37 36 37 37 37 36 36 31 25 20 24 43 56
78 78 75 69 61 49 53 50 48 50 47 46 44 42 43 47 49 50 50 50 49 48 44 43 42 42 41 41 41 40 40 39 36 35 39 38 37 32 27 23 25 34 52
78 79 77 70 65 56 57 59 59 53 44 46 47 44 39 37 39 43 44 44 45 46 46 45 43 44 44 46 46 44 41 39 37 35 36 38 37 32 29 25 24 31 41
79 80 74 66 64 55 55 51 50 43 48 50 51 50 46 38 36 33 33 35 38 39 40 40 40 40 42 46 48 47 45 42 42 37 37 37 36 33 30 28 24 29 39
81 77 68 62 66 62 57 51 49 45 53 50 44 40 39 40 41 40 40 40 38 37 36 38 39 39 38 42 45 46 45 44 44 40 34 37 36 32 30 31 26 29 39
Wind_Direction_850mb
286 310 313 315 317 315 313 305 299 295 288 292 299 294 295 296 296 297 293 289 292 294 293 294 299 302 301 300 297 290 286 277 287 295 285 293 293 289 285 255 274 214 225
298 308 311 315 315 311 307 300 297 294 291 283 282 286 290 295 301 297 297 296 299 298 298 300 302 304 305 303 301 296 291 296 282 291 297 300 293 285 286 273 256 221 229
304 310 313 314 311 306 303 298 295 291 284 275 276 277 285 290 291 290 296 295 297 298 306 302 304 306 308 310 305 305 299 291 296 295 295 304 307 286 275 273 238 232 210
309 312 313 312 304 304 303 300 297 290 281 275 274 277 281 286 286 290 287 291 295 300 302 300 305 306 308 308 308 309 310 300 297 300 297 313 306 293 277 286 241 227 206
306 304 312 305 300 303 302 297 297 293 289 276 274 275 279 280 284 284 289 289 291 299 304 303 305 306 305 305 306 312 312 306 302 298 302 321 324 310 274 280 248 227 215
298 298 307 300 298 300 302 298 295 296 295 287 277 275 279 279 280 283 287 290 291 299 301 304 306 311 308 304 304 306 308 307 305 304 305 311 318 322 317 288 264 227 200
293 292 298 298 292 293 294 292 294 294 292 289 280 276 279 278 281 282 287 286 290 291 295 299 304 305 306 309 308 309 308 304 302 301 298 306 315 315 322 313 255 238 200
293 292 292 295 291 288 285 285 287 290 289 288 284 279 279 275 275 278 283 284 285 286 290 292 297 305 309 310 316 318 314 313 304 299 294 294 305 312 320 305 279 234 207
295 294 295 294 289 287 286 283 279 278 283 283 283 282 269 269 266 272 277 283 283 285 289 294 293 298 303 311 314 318 317 318 313 301 293 291 281 305 332 328 299 246 179
328 320 315 312 306 297 292 289 276 270 273 276 278 279 274 269 261 262 268 280 286 291 295 298 296 293 291 303 310 315 316 321 327 320 305 296 280 304 275 314 307 243 187
324 321 320 318 310 310 312 304 278 262 260 265 272 275 276 266 264 265 265 275 287 292 299 305 305 300 300 303 306 310 317 323 326 330 326 317 307 275 301 275 288 277 236
330 325 317 317 320 320 308 301 293 262 249 262 260 265 267 266 259 261 262 267 284 297 307 311 316 305 302 307 311 315 320 322 327 331 334 332 323 296 278 272 278 278 245
333 332 332 324 324 326 321 308 297 276 248 249 252 261 262 263 242 250 257 264 275 294 314 321 323 324 319 326 337 337 338 337 338 336 335 333 327 304 248 260 248 250 254
338 338 338 336 336 332 334 321 306 275 249 245 247 255 254 256 248 230 250 268 283 284 301 319 331 322 315 324 338 346 345 343 345 342 338 331 325 305 263 244 254 246 231
339 339 340 342 339 340 342 341 307 282 258 244 252 255 250 253 265 251 256 272 281 284 291 320 328 338 340 333 334 337 346 346 344 343 340 333 325 308 269 241 255 254 235
338 337 336 337 338 341 337 342 348 307 265 259 250 250 242 250 249 257 254 265 273 264 275 277 302 331 350 343 340 341 343 347 347 343 339 335 330 312 283 255 250 252 240
329 329 328 328 330 337 340 343 341 340 334 284 258 246 237 240 227 242 256 280 268 263 262 262 287 339 343 345 349 346 341 345 347 345 339 331 325 310 284 260 249 247 235
335 329 327 327 325 324 327 334 345 338 339 335 306 278 245 239 234 243 259 289 288 261 264 268 282 301 322 337 351 348 342 341 344 343 338 331 324 316 288 267 252 245 235
337 330 327 327 326 323 318 312 315 327 333 333 341 286 201 227 215 251 269 301 304 313 324 318 308 321 322 332 341 344 347 342 340 341 340 334 324 313 292 271 262 251 242
337 333 329 326 324 325 324 322 309 306 308 312 314 318 332 305 245 250 286 294 303 310 316 325 329 335 330 326 329 334 342 341 338 339 337 334 321 311 290 265 263 249 233
339 337 336 331 328 326 322 321 316 308 303 302 301 301 299 300 294 295 299 301 301 301 304 312 313 323 331 331 327 324 326 331 333 334 330 331 320 309 295 269 260 254 239
339 338 337 332 322 318 317 317 319 317 310 303 299 296 295 293 292 286 282 282 286 289 294 297 303 311 317 321 324 321 321 319 321 327 325 323 322 302 295 282 268 255 240
338 338 336 333 328 319 316 313 317 318 318 314 311 305 298 292 285 281 279 278 278 278 278 281 289 295 302 307 311 317 316 318 317 316 317 315 316 303 289 282 276 258 239
338 338 335 330 328 319 312 309 304 299 306 305 306 307 303 299 295 284 282 282 280 275 270 273 278 283 288 294 299 304 306 305 305 303 306 305 305 301 277 272 271 264 250
340 338 334 332 334 326 321 318 319 311 309 311 305 300 293 292 289 289 285 279 278 278 270 268 272 276 281 286 289 294 298 300 297 293 294 295 295 292 269 263 260 260 251
343 340 336 336 327 328 316 312 315 317 308 312 315 312 307 291 288 287 283 279 279 279 280 271 270 275 281 286 287 286 287 289 293 290 283 286 287 284 262 251 250 252 248